Portada
METAR-TAF:

METAR-TAF

Aeroports :

Ibagué, Colòmbia

latitud: 04-26N, longitud: 075-09W, altitud: 928 m

Observació

L'informe es va fer fa 59 minuts, a les 17:00 UTC
Vent 8 kt del Sud-Est
Temperatura 26°C
Humitat 84%
Pressió 1013 hPa
Visibilitat 10 km o més
Cel ennuvolat a una alçada de 2000 ft
Núvols disperses a una alçada de 10000 ft

METAR: SKIB 171700Z 14008KT 9999 BKN020 SCT100 26/23 A2992

Hora: 12:59 (17:59 UTC)


TAF: manca

Observacions i pronòstics meteorològics de més de 4000 aeroports (METAR i TAF).

Les estacions disponibles són els punts grocs i vermells al mapa.

Posi el ratolí al punt desitjat per veure el nom de l'estació.

Feu clic per veure les observacions i els pronòstics meteorològics.

Per canviar el mapa: feu clic els botons verds amb una creu de color negre per apropar; al botó verd amb un guió per allunyar la imatge; o en les fletxes verdes per a mapes adjacents.


METAR-TAF: